Weather Roundup
Issued by NWS Springfield, MO

Home | Current Version | Previous Version | Text Only | Print | Product List | Glossary On
Versions: 1 2 3 4 5 6 7 8 9 10 11 12 13 14 15 16 17 18 19 20 21 22 23 24 25 26 27 28 29 30 31 32 33 34 35 36 37 38 39 40 41 42 43 44 45 46 47 48 49 50
000
NZUS99 KSGF 261057
HRRSGF

HOURLY WEATHER
NATIONAL WEATHER SERVICE SPRINGFIELD MO
600 AM CDT TUE SEP 26 2017

......SGF CWA......

CITY           SKY/WX    TMP DP  RH WIND       PRES   REMARKS
SPRINGFIELD    CLOUDY    70  64  81 S7        29.96S
JOPLIN         PTCLDY    68  66  93 S6        29.96R
WEST PLAINS    CLEAR     62  60  93 CALM      30.01R
ROLLA          CLEAR     65  62  90 S7        29.98R

......SURROUNDING SGF CWA......

CITY           SKY/WX    TMP DP  RH WIND       PRES   REMARKS
CHANUTE        CLOUDY    67  65  93 N5        29.99R
PARSONS        HVY RAIN  66  65  96 N6        29.98R FOG
COFFEYVILLE    LGT RAIN  67  66  97 E5        29.96R
EMPORIA        CLOUDY    65  64  97 CALM      30.00S
HARRISON AR    CLEAR     63  62  97 CALM      29.99R

......KANSAS AND MISSOURI......

CITY           SKY/WX    TMP DP  RH WIND       PRES   REMARKS
KANSAS CTY INT RAIN      65  65 100 SW3       29.98R FOG
SEDALIA        CLOUDY    68  67  96 CALM      29.94S
ST JOSEPH      CLOUDY    65  65 100 NW5       29.97S
ST LOUIS       CLEAR     73  63  70 CALM      29.97R
WICHITA        CLOUDY    59  59 100 N12       30.02R
TOPEKA         CLOUDY    66  66 100 W3        29.99R
OLATHE         LGT RAIN  65  65 100 CALM      29.99R

......TENNESSEE......

CITY           SKY/WX    TMP DP  RH WIND       PRES   REMARKS
MEMPHIS        NOT AVBL
NASHVILLE      MOCLDY    67  65  93 CALM      29.99R

......ARKANSAS.......

CITY           SKY/WX    TMP DP  RH WIND       PRES   REMARKS
FAYETTEVILLE   CLOUDY    63  63 100 CALM      29.98S
FT SMITH       CLEAR     69  67  93 E3        29.94R
LITTLE ROCK    CLEAR     67  67 100 CALM      29.95R

......OKLAHOMA.......

CITY           SKY/WX    TMP DP  RH WIND       PRES   REMARKS
TULSA          CLOUDY    69  67  93 N7        29.94R
PONCA CITY     HVY RAIN  65  63  93 N10       29.98S FOG
MCALESTER      CLOUDY    72  67  84 CALM      29.94S
OKLAHOMA CITY  LGT RAIN  70  67  90 N7        29.95R

......IOWA............

CITY           SKY/WX    TMP DP  RH WIND       PRES   REMARKS
DES MOINES     NOT AVBL
QUAD CITIES    CLOUDY    69  66  90 E5        29.91S

......ILLINOIS........

CITY           SKY/WX    TMP DP  RH WIND       PRES   REMARKS
QUINCY         CLOUDY    71  63  75 S7        29.93R
CHICAGO        PTCLDY    72  59  63 SW5       29.93R



USA.gov is the U.S. government's official web portal to all federal, state and local government web resources and services.